Regional Weather Roundup
Issued by NWS Newport/Morehead, NC

Current Version | Previous Version | Graphics & Text | Print | Product List | Glossary On
Versions: 1 2 3 4 5 6 7 8 9 10 11 12 13 14 15 16 17 18 19 20 21 22 23 24 25 26 27 28 29 30 31 32 33 34 35 36 37 38 39 40 41 42 43 44 45 46 47 48 49 50
000 ASUS42 KMHX 221010 RWRMHX WEATHER ROUNDUP FOR EASTERN NORTH CAROLINA NATIONAL WEATHER SERVICE NEWPORT/MOREHEAD CITY NC 600 AM EDT WED OCT 22 2014 NOTE: "FAIR" INDICATES FEW OR NO CLOUDS BELOW 12,000 FEET WITH NO SIGNIFICANT WEATHER AND/OR OBSTRUCTIONS TO VISIBILITY NCZ015>017-031-032-045>047-102-103-221100- NORTH COAST CITY SKY/WX TMP DP RH WIND PRES REMARKS EDENTON CLOUDY 54 52 92 NW9 29.86R ELIZABETH CITY CLOUDY 55 52 88 W14 29.83S KITTY HAWK CLOUDY 58 55 91 W7G16 29.79S MANTEO CLOUDY 57 54 88 W12G21 29.82R $$ NCZ045>047-081-094-103-104-221100- CENTRAL COAST CITY SKY/WX TMP DP RH WIND PRES REMARKS FRISCO CLOUDY 58 54 86 NW13G24 29.82R SWANQUARTER N/A 55 N/A N/A NW20 29.82R $$ NCZ095-097-098-100-101-221100- SOUTHERN COAST CITY SKY/WX TMP DP RH WIND PRES REMARKS BEAUFORT PTCLDY 56 46 69 NW14 29.87R CEDAR ISLAND N/A 59 N/A N/A NW17G23 29.88S JACKSONVILLE MOCLDY 54 44 69 NW10 29.89R PINEY ISLAND MOSUNNY 58 47 66 NW20G25 29.86R WILMINGTON PTCLDY 53 43 68 NW9 29.91R $$ NCZ011>013-027>030-043-044-078>080-089-090>093-098-221100- COASTAL PLAIN CITY SKY/WX TMP DP RH WIND PRES REMARKS AHOSKIE MOCLDY 51 48 89 CALM 29.88S CLINTON CLEAR 50 44 80 NW3 29.93S ELIZABETHTOWN CLEAR 52 42 69 NW7 29.93S GOLDSBORO CLEAR 52 48 87 NW7 29.90R GREENVILLE CLEAR 52 46 82 NW3 29.91S HAVELOCK PTCLDY 55 44 66 NW12 29.88R KENANSVILLE CLEAR 50 41 71 NW5 29.93R KINSTON CLEAR 51 44 77 NW6 29.91S NEW BERN MOCLDY 55 44 66 NW8 29.89R RICHLANDS PTCLDY 52 41 66 NW5 29.91R ROCKY MOUNT CLEAR 50 46 86 NW12 29.91R WASHINGTON CLEAR 51 46 83 NW7 29.88S WHITEVILLE CLEAR 52 42 67 CALM 29.93S $$ AMZ130-135-150-152-154-156-158-170-250-252-270-ANZ085-086-088-633-658-670-221100- MARINE OBSERVATIONS STATION/POSITION TIME TEMP WIND PRES WAVE SWELL AIR SEA DIR/SP/G HT/PER HT/PER (UTC) (F) (DEG/KT/KT) (MB) (FT/S) (FT/S) CHESAPEAKE LIGHT 0900 61 10/ 16/ 18 1009.0 64 E VA BEACH 1000 64 69 300/ 10/ 12 1007.0 3/ 8 3/ 8 DUCK 1000 57 69 320/ 10/ 15 1007.7 2 E DUCK 1000 N/A 3/ 6 10 NE DUCK 1000 71 N/A 3/ 4 2/12 OREGON INLET 1000 59 68 280/ 14/ 18 1009.0 13E OREGON INLT 1000 74 N/A 3/ 4 2/11 HATTERAS CG 1000 60 71 310/ 20/ 24 1010.1 DIAMOND BUOY 1000 63 300/ 17/ 21 1009.2 3/ 4 2/11 17 S OCRACOKE NOT AVBL CAPE LOOKOUT 0900 60 320/ 14/ 18 1010.6 BEAUFORT LAB 1000 57 70 320/ 8/ 13 1010.6 30 SE NEW RIVER 1000 62 76 340/ 19/ 25 1010.6 5/ 5 5 SE WRIGHTSVLE 1000 56 73 330/ 17/ 21 N/A 225 S CAPE HAT 0908 77 79 280/ 17/ 21 1010.7 4/10 2/10 41 SE CHARLESTON 1000 67 79 360/ 19/ 25 1012.2 5/ 5 2/10 $$

USA.gov is the U.S. government's official web portal to all federal, state and local government web resources and services.